Location: Lango�lan
(48.1202°N, 3.2340°W)
Time: 05:01:13
(UTC+00:00)

CENTAUR R/B - Pass Details

Date: 23 October 2019
Orbit: 781 x 1407 km, 63.4° (Epoch: 10 November)

Event Time Altitude Azimuth Distance (km) Brightness Sun altitude
Exits shadow 04:58:36 25° 282° (WNW) 2,438 4.0 -18.2°
Maximum altitude 05:01:41 32° 248° (WSW) 2,190 3.8 -17.7°
Drops below altitude 10° 05:08:58 10° 190° (S) 3,486 5.3 -16.4°
Sets 05:12:17 0° 181° (S) 4,457 5.9 -15.9°
